Location: Wheeling
(40.0640°N, 80.7210°W)
Time: 14:32:22
(UTC-05:00)

CUTE 1.7 + AOD 2 - Pass Details

Date: 31 October 2021
Orbit: 592 x 610 km, 97.6° (Epoch: 01 December)

Event Time Altitude Azimuth Distance (km) Brightness Sun altitude
Rises 05:18:23 0° 16° (NNE) 2,879 ? -29.7°
Reaches altitude 10° 05:20:37 10° 20° (NNE) 1,968 ? -29.3°
Enters shadow 05:23:09 33° 36° (NE) 1,025 ? -28.8°
